Regional Weather Roundup
Issued by NWS

Home | Current Version | Previous Version | Text Only | Print | Product List | Glossary On
Versions: 1 2 3 4 5 6 7 8 9 10 11 12 13 14 15 16 17 18 19 20 21 22 23 24 25 26 27
000
ASUS45 KBOU 240007
RWRCO

WEATHER ROUNDUP FOR COLORADO
NATIONAL WEATHER SERVICE DENVER/BOULDER CO
600 PM MDT THU OCT 23 2014

NOTE: "FAIR" INDICATES FEW OR NO CLOUDS BELOW 12000 FEET WITH NO
SIGNIFICANT WEATHER AND/OR OBSTRUCTIONS TO VISIBILITY.

COZ001>005-013-030-031-240100-
...NORTHWEST COLORADO...

CITY           SKY/WX    TMP DP  RH WIND       PRES   REMARKS
CRAIG          PTCLDY    59  37  44 CALM      30.18R
HAYDEN         PTCLDY    61  30  31 W10       30.20R
MEEKER         PTCLDY    62  34  35 SW8       30.22R
MOUNT WERNER   NOT AVBL
STEAMBOAT SPGS PTCLDY    59  33  37 CALM      30.22R
WALDEN         CLOUDY    54  28  37 S8        30.27R
$$

COZ006>008-011-240100-
...WEST CENTRAL VALLEYS...

CITY           SKY/WX    TMP DP  RH WIND       PRES   REMARKS
GRAND JUNCTION CLEAR     64  39  39 W5        30.17R
MONTROSE       CLEAR     69  35  28 W3        30.23R
EAGLE          PTCLDY    61  36  39 SW8       30.25R
RIFLE          CLEAR     63  41  44 S5        30.20R
DELTA          CLEAR     72  35  25 SW3       30.19S
NUCLA          CLEAR     68  32  26 CALM      30.27R
$$

COZ017>023-064>068-240100-
...SOUTHWEST COLORADO...

CITY           SKY/WX    TMP DP  RH WIND       PRES   REMARKS
DURANGO        CLEAR     62  36  37 SW10      30.28R
CORTEZ         CLEAR     65  32  29 MISG      30.26R
PAGOSA SPRINGS CLEAR     62  33  34 SW5       30.34R
TELLURIDE      CLEAR     55  31  40 W7        30.43R
WOLF CREEK PAS CLEAR     37  28  70 SW15        N/A
$$

COZ009-010-012-014-032>034-037-058>063-240100-
...CENTRAL COLORADO...

CITY           SKY/WX    TMP DP  RH WIND       PRES   REMARKS
ASPEN          CLEAR     51  35  54 CALM      30.30R
BUENA VISTA    CLEAR     55  27  33 W9        30.31R
COPPER MTN     CLEAR     43  23  45 W9G18     30.53R
BERTHOUD PASS  FAIR      34  32  93 W24G40    30.52R WCI  21
COTTONWOOD PAS CLEAR     55  21  26 W10G20    30.42R
GUNNISON       CLEAR     61  27  27 W7        30.34R
KREMMLING      PTCLDY    61  25  25 SW8         N/A
LEADVILLE      CLEAR     48  25  40 W7        30.41R
MONARCH PASS   CLEAR     41  28  60 SW21G30   30.64S
SALIDA         CLEAR     61  30  31 SW12      30.35S
SUNLIGHT       CLEAR     43  28  56 CALM      30.48S
WILKERSON PASS NOT AVBL
$$

COZ069>075-240100-
...SAN LUIS VALLEY/SANGRE DE CRISTO MOUNTAINS...

CITY           SKY/WX    TMP DP  RH WIND       PRES   REMARKS
ALAMOSA        CLEAR     61  29  29 E5        30.29R
LA VETA PASS   CLEAR     46  27  46 S7        30.44R
SAGUACHE       CLEAR     61  32  33 SE6       30.32R
$$

COZ035-036-038>040-240100-
...NORTHERN COLORADO FRONT RANGE...

CITY           SKY/WX    TMP DP  RH WIND       PRES   REMARKS
DENVER INTL AP MOCLDY    66  30  26 S6        30.11R
DMNS CITY PARK   N/A     66  33  29 SE5       30.11R
AURORA         MOCLDY    64  34  33 SE7       30.14R
FRONT RANGE AP NOT AVBL
ERIE MUNI ARPT MOCLDY    70  29  22 CALM      30.09R
BOULDER MUN AP MOCLDY    72  32  23 SW5       30.09S
CENTENNIAL     PTCLDY    65  34  31 E5        30.14R
BROOMFIELD     NOT AVBL
FORT COLLINS   MOCLDY    64  34  32 SE8       30.08S
LONGMONT       MOCLDY    73  32  22 SW8       30.10R
$$

COZ041-046-047-076>085-087-088-240100-
...PIKES PEAK/PALMER DIVIDE AND SOUTHERN FOOTHILLS...

CITY           SKY/WX    TMP DP  RH WIND       PRES   REMARKS
COLO. SPRINGS  MOCLDY    63  30  28 SE8       30.19R
A. F. ACADEMY  PTCLDY    61  30  31 S8        30.20R
ELLICOTT       NOT AVBL
FALCON         PTCLDY    59  31  34 S6        30.23R
FORT CARSON    PTCLDY    65  31  28 S7        30.17R
LIMON          CLEAR     61  36  39 S6        30.14R
MONUMENT HILL  PTCLDY    55  32  41 S6        30.21F
TRINIDAD       CLEAR     67  32  27 SE6       30.17R
$$

COZ042>045-048>051-090-091-240100-
...NORTHEAST COLORADO...

CITY           SKY/WX    TMP DP  RH WIND       PRES   REMARKS
GREELEY ARPT   MOCLDY    64  34  32 S7        30.07R
AKRON          CLEAR     62  34  35 W6        30.08R
BURLINGTON     MOCLDY    65  41  41 S10       30.08S
WRAY           CLEAR     67  34  29 SW3       30.04R
STERLING       CLEAR     66  37  34 S6        30.03R
HOLYOKE        CLEAR     64  32  29 SW3       30.03S
FORT MORGAN    CLEAR     64  29  27 CALM      30.07R
$$

COZ086-089-092>099-240100-
...SOUTHEAST COLORADO...

CITY           SKY/WX    TMP DP  RH WIND       PRES   REMARKS
PUEBLO         CLEAR     71  28  20 E9        30.09R
LA JUNTA       CLEAR     70  36  28 NE5       30.09S
LAMAR          PTCLDY    71  38  29 NW5       30.06R
SPRINGFIELD      N/A     64  50  60 SE7       30.12R
$$



USA.gov is the U.S. government's official web portal to all federal, state and local government web resources and services.